Temp
50 50 52 52 53 53 52 52 52 52 52 52 52 52 51 51 49 39 35 35 34 25 33 35 35 32 33 33 30 29 27 31 32 28 28 27 26 30 28 31 32 33 32 31 33 31 29 40 46 43 51 47 46 53
48 49 49 52 52 52 52 52 51 51 51 52 51 51 51 50 49 43 33 36 37 31 30 37 37 36 35 35 33 29 27 32 33 30 32 32 29 28 24 28 34 33 40 35 34 37 37 49 45 42 43 47 42 45
47 47 47 48 49 50 51 51 51 51 51 51 51 51 50 49 48 41 32 32 31 29 30 32 31 36 38 36 36 25 22 34 34 35 31 31 29 27 27 27 32 37 38 36 37 39 37 42 39 40 42 43 44 41
48 47 46 46 47 48 49 50 50 50 50 51 51 49 48 47 46 41 32 32 32 24 21 22 38 34 39 37 35 35 32 35 34 33 28 28 28 32 28 30 31 26 30 29 30 31 34 33 29 28 31 38 42 41
47 48 48 47 46 47 48 49 49 49 48 48 48 48 47 45 43 37 32 32 32 30 20 17 31 34 35 36 35 35 32 30 29 28 27 28 32 30 30 28 15 15 14 21 24 21 21 28 27 27 27 32 34 37
46 46 47 47 47 47 47 48 48 48 48 48 47 47 46 44 41 32 24 31 33 31 24 18 29 26 30 33 32 32 33 32 31 30 30 32 32 30 26 14 12 11 12 14 16 18 19 24 29 25 23 27 29 29
45 45 45 45 46 46 46 47 47 48 48 48 47 47 47 44 32 26 23 30 37 31 22 18 16 27 29 28 27 32 33 32 31 30 30 29 20 20 11 6 7 7 8 10 14 14 24 23 20 22 22 24 26 24
44 44 44 44 44 45 45 45 46 46 47 47 47 46 45 44 38 24 29 33 32 21 17 9 14 18 25 20 21 27 28 30 30 28 28 22 13 11 1 4 5 5 5 10 7 9 15 18 19 17 19 19 20 18
43 43 43 43 43 43 44 44 45 45 45 45 45 42 33 23 17 17 38 33 24 21 7 0 1 7 20 19 23 22 29 24 30 23 22 15 7 -2 1 2 1 1 0 1 3 11 8 9 12 12 13 12 13 14
42 42 42 42 42 42 42 43 43 43 42 43 30 21 15 14 34 33 18 14 11 3 3 -2 -3 1 19 15 12 17 22 22 20 21 21 8 3 6 4 4 3 1 1 2 -1 -0 1 2 5 8 8 9 10 11
41 41 41 41 41 41 41 41 41 39 36 19 12 13 19 28 19 7 2 6 -2 -0 -6 -10 -3 -1 13 6 6 22 14 17 19 19 17 9 5 5 4 3 3 2 2 1 2 3 3 3 2 4 5 7 8 9
41 40 40 41 40 40 40 39 38 22 12 18 17 13 9 7 6 9 -12 -7 -3 -6 -10 -11 -3 1 3 16 8 12 10 15 15 16 15 8 5 3 1 0 0 1 -0 -0 1 0 2 3 2 2 3 3 6 8
40 39 39 40 39 39 38 36 35 33 25 9 8 3 7 -1 3 -4 -8 -6 -9 -11 -9 -8 -7 -3 -0 11 5 5 6 8 12 10 6 5 4 2 0 -1 -2 -1 -1 -1 -1 -0 1 1 3 1 1 2 5 6
40 38 38 38 38 37 36 33 30 20 8 1 0 -1 -5 -10 -13 -19 -15 -16 -7 -2 -8 -5 -14 -7 -5 2 5 3 5 7 5 5 5 3 1 -0 0 -1 -2 -4 -4 -4 -3 -2 -1 -1 0 2 2 2 2 3
39 36 36 36 37 35 33 28 24 2 1 -6 -2 -10 -12 -12 -16 -19 -21 -18 -10 -9 -6 -14 -12 2 -8 -3 -2 -1 2 -4 3 5 4 1 -1 -1 -2 -3 -4 -5 -6 -5 -4 -5 -3 -2 -1 1 2 1 1 2
37 30 26 36 36 31 29 12 1 -3 -9 -7 -9 -11 -20 -16 -15 -21 -25 -21 -13 -6 -9 -11 -15 -8 -8 -7 -4 -8 -3 1 3 -3 -1 -1 -4 -4 -5 -5 -6 -6 -7 -7 -7 -8 -7 -6 -5 -2 2 0 0 1
30 12 33 35 33 27 24 0 -2 -11 -10 -11 -14 -32 -24 -23 -14 -20 -22 -15 -6 -16 -13 -18 -5 -5 -6 -10 -6 -6 -1 2 -1 -5 -5 -7 -8 -8 -9 -9 -8 -9 -9 -9 -11 -11 -11 -7 -5 -3 -5 -3 -2 1
8 18 33 32 20 14 -4 -6 -7 -6 -13 -19 -10 -15 -27 -23 -23 -24 -23 -18 -15 -17 -18 -11 -6 -9 -9 -6 -7 -2 -5 -9 -8 -8 -7 -9 -12 -13 -13 -12 -11 -11 -11 -11 -12 -13 -12 -11 -10 -7 -8 -6 -5 -3
18 23 31 29 18 1 0 -3 -6 -10 -17 -25 -22 -18 -22 -22 -21 -21 -24 -24 -22 -16 -14 -16 -11 -9 -7 -10 -11 -15 -21 -20 -14 -12 -14 -16 -13 -15 -14 -14 -13 -14 -15 -14 -15 -13 -13 -13 -11 -10 -10 -9 -8 -7
29 29 29 23 18 4 -2 -6 -9 -6 -12 -13 -23 -19 -20 -17 -21 -31 -32 -27 -22 -21 -14 -11 -9 -9 -8 -11 -14 -15 -16 -18 -21 -19 -16 -14 -17 -22 -18 -18 -15 -17 -16 -17 -13 -10 -14 -12 -13 -13 -14 -13 -12 -10
18 17 20 7 -2 -6 -10 -15 -11 -16 -18 -12 -23 -20 -15 -22 -25 -25 -25 -27 -19 -15 -10 -14 -16 -16 -27 -28 -27 -27 -20 -18 -17 -16 -16 -18 -20 -23 -20 -21 -24 -23 -22 -19 -17 -12 -15 -17 -12 -14 -17 -14 -15 -15
5 21 2 8 0 -8 -9 -16 -12 -15 -13 -19 -18 -25 -22 -16 -22 -25 -29 -21 -16 -9 -13 -16 -19 -24 -25 -20 -22 -28 -28 -29 -32 -28 -23 -25 -20 -21 -23 -28 -27 -22 -22 -19 -21 -18 -15 -15 -16 -17 -18 -15 -16 -16
14 11 2 -0 2 -3 -11 -17 -13 -20 -9 -13 -23 -14 -16 -24 -27 -23 -17 -17 -13 -21 -29 -28 -30 -36 -29 -35 -36 -33 -38 -32 -27 -28 -25 -25 -27 -27 -27 -25 -30 -29 -21 -17 -25 -25 -21 -18 -17 -18 -19 -19 -21 -19
7 -6 -6 -8 -7 -8 -17 -16 -19 -21 -22 -21 -20 -13 -17 -28 -25 -20 -12 -18 -13 -31 -29 -30 -35 -26 -30 -31 -28 -27 -30 -31 -32 -31 -33 -32 -26 -19 -28 -23 -27 -24 -20 -16 -18 -20 -22 -22 -19 -21 -23 -26 -22 -21
7 -5 -8 -8 -15 -7 -8 -12 -14 -11 -11 -26 -17 -15 -19 -35 -20 -21 -14 -9 -20 -25 -29 -41 -37 -30 -20 -26 -27 -27 -34 -25 -23 -21 -22 -22 -28 -26 -21 -22 -20 -17 -23 -26 -25 -25 -19 -22 -19 -20 -19 -20 -19 -18
1 -16 -9 -17 -11 -7 -14 -7 -13 -14 -21 -14 -12 -21 -31 -22 -15 -9 -11 -11 -15 -16 -22 -19 -16 -26 -26 -21 -20 -20 -18 -26 -29 -23 -19 -23 -22 -21 -21 -21 -17 -11 -24 -25 -24 -23 -18 -17 -20 -20 -18 -17 -17 -19
4 -5 -23 -26 -19 -15 -13 -20 -21 -18 -14 -10 -11 -13 -12 -7 -8 -2 -7 -14 -12 -17 -20 -18 -14 -12 -13 -20 -22 -24 -31 -24 -16 -16 -25 -26 -22 -20 -17 -18 -17 -15 -27 -26 -26 -24 -18 -15 -15 -15 -15 -13 -16 -18
-14 -20 -3 -16 -15 -18 -12 -15 -15 -14 -11 -15 -12 -6 -3 -0 1 -4 -7 -12 -20 -20 -19 -23 -22 -19 -20 -20 -23 -25 -27 -32 -30 -25 -22 -20 -21 -22 -24 -23 -18 -6 -10 -15 -14 -14 -16 -15 -14 -13 -13 -13 -12 -11
-13 -23 -16 -12 -14 -16 -14 -10 -10 -12 -17 -16 -10 -5 -2 -1 -4 -8 -12 -18 -19 -15 -11 -9 -10 -21 -19 -21 -27 -28 -28 -25 -16 -14 -16 -17 -18 -15 -26 -25 -23 -21 -21 -23 -12 -4 -5 -5 -4 -6 -9 -11 -12 -12
-15 -21 -15 -16 -12 -5 -10 -15 -17 -22 -23 -25 -28 -22 -17 -15 -13 -17 -18 -15 -14 -11 -8 -10 -12 -15 -15 -17 -14 -15 -28 -28 -23 -16 -16 -17 -16 -21 -22 -18 -18 -17 -18 -24 -15 -13 -8 -12 -13 -20 -20 -17 -15 -14
-19 -21 -16 -16 -12 -15 -21 -26 -28 -28 -28 -30 -31 -30 -24 -23 -22 -19 -17 -15 -17 -16 -14 -10 -8 -12 -13 -15 -18 -17 -12 -23 -25 -21 -23 -26 -24 -22 -20 -18 -16 -19 -21 -22 -20 -20 -18 -18 -19 -20 -20 -21 -20 -19
-20 -18 -16 -12 -12 -23 -27 -26 -27 -29 -30 -31 -30 -35 -30 -29 -19 -10 -14 -18 -15 -9 -7 -8 -6 -8 -12 -13 -16 -18 -13 -19 -22 -19 -20 -20 -22 -18 -16 -16 -18 -26 -27 -24 -24 -25 -24 -27 -25 -23 -23 -24 -23 -23
-26 -23 -22 -19 -17 -17 -23 -26 -26 -26 -30 -31 -29 -30 -31 -29 -22 -12 -13 -16 -11 -7 -5 -6 -9 -12 -12 -12 -15 -17 -15 -21 -21 -9 -7 -3 -6 -7 -19 -26 -28 -29 -27 -27 -25 -26 -26 -27 -25 -26 -26 -27 -26 -25
MSLP
997.60 997.34 996.47 996.46 996.57 997.00 997.42 997.86 998.38 998.90 999.49 1000.23 1000.92 1001.36 1001.77 1002.22 1002.36 1002.95 1005.44 1005.04 1005.29 1007.98 1009.33 1009.46 1009.86 1010.19 1010.41 1010.64 1011.13 1011.70 1011.83 1011.34 1011.31 1010.84 1009.87 1008.70 1007.44 1006.64 1006.30 1004.75 1003.71 1003.63 1003.47 1002.92 1002.93 1002.21 1000.72 998.14 999.76 997.98 994.30 995.38 996.01 996.56
1000.11 999.46 998.60 998.23 998.42 998.89 999.20 999.44 999.75 1000.22 1000.67 1001.22 1001.69 1002.10 1002.40 1002.72 1002.90 1003.16 1005.50 1005.92 1005.86 1007.40 1009.74 1009.85 1010.05 1010.06 1010.04 1010.31 1011.08 1011.70 1011.43 1011.03 1010.60 1009.98 1008.66 1007.93 1006.76 1005.81 1004.72 1003.47 1002.50 1002.30 1000.43 1001.13 1001.65 999.71 998.90 997.60 997.11 997.51 996.73 996.29 996.35 996.34
1002.28 1001.95 1001.52 1000.74 1000.58 1000.56 1000.72 1000.97 1001.18 1001.62 1001.81 1002.13 1002.64 1002.95 1003.22 1003.58 1003.73 1004.12 1006.02 1006.82 1006.95 1008.80 1009.95 1010.07 1009.92 1010.10 1010.46 1010.73 1010.85 1011.53 1011.44 1010.73 1010.43 1010.00 1009.60 1008.35 1007.03 1005.21 1004.39 1003.16 1003.24 1001.81 1000.87 1001.41 1001.87 999.80 999.58 999.56 999.13 998.87 998.48 998.06 997.53 996.98
1004.09 1004.29 1003.98 1003.71 1003.31 1002.77 1002.56 1002.83 1003.00 1003.14 1003.22 1003.40 1003.58 1004.10 1004.24 1004.67 1004.57 1004.94 1006.66 1007.42 1007.44 1008.90 1009.90 1010.46 1009.99 1010.12 1009.95 1010.42 1010.80 1011.01 1010.92 1010.99 1010.81 1010.60 1009.78 1008.79 1007.67 1006.08 1004.48 1004.10 1004.63 1005.63 1003.69 1003.99 1002.75 1002.34 1001.57 1001.38 1002.26 1002.35 1000.71 999.82 998.97 998.61
1006.43 1006.07 1005.69 1005.39 1005.10 1004.82 1004.72 1004.67 1004.53 1004.32 1004.14 1004.47 1004.69 1004.72 1005.16 1005.24 1005.63 1006.22 1007.05 1008.12 1008.21 1008.87 1010.17 1010.84 1010.24 1009.77 1009.77 1010.09 1010.50 1010.63 1010.88 1010.62 1010.22 1009.75 1008.92 1007.82 1006.69 1006.61 1005.82 1006.26 1008.83 1010.33 1011.14 1009.33 1007.43 1007.60 1006.99 1004.88 1004.55 1004.24 1003.36 1002.02 1001.68 1000.58
1008.10 1007.75 1007.28 1006.89 1006.71 1006.37 1006.17 1006.04 1005.78 1005.70 1005.57 1005.45 1005.74 1005.79 1005.96 1006.03 1006.17 1006.61 1008.27 1008.74 1008.70 1008.78 1009.90 1011.25 1010.47 1010.17 1010.12 1010.16 1010.06 1010.17 1009.74 1009.68 1009.41 1008.40 1007.71 1006.97 1006.65 1007.06 1007.27 1009.90 1012.92 1013.72 1014.39 1014.07 1011.84 1010.62 1009.37 1007.81 1006.26 1005.99 1005.21 1004.16 1003.15 1002.10
1009.77 1009.18 1008.76 1008.43 1007.96 1007.57 1007.28 1006.80 1006.59 1006.52 1006.29 1006.17 1006.15 1006.21 1006.36 1006.55 1006.97 1008.16 1009.61 1009.70 1008.97 1009.08 1010.47 1012.33 1011.90 1011.24 1010.88 1010.37 1009.95 1009.48 1009.11 1008.94 1008.47 1008.02 1007.64 1008.04 1009.16 1009.57 1011.15 1013.56 1015.40 1015.95 1015.87 1015.23 1014.39 1012.37 1009.70 1009.50 1009.03 1008.38 1007.09 1005.81 1004.77 1004.35
1011.13 1010.70 1010.18 1009.56 1009.05 1008.60 1008.24 1007.88 1007.54 1007.12 1006.99 1007.09 1007.10 1007.14 1007.27 1007.53 1008.05 1008.95 1010.00 1009.77 1009.36 1010.18 1011.85 1014.52 1014.07 1013.31 1012.46 1011.73 1010.86 1009.78 1009.32 1008.77 1008.26 1008.34 1008.72 1009.86 1012.06 1013.58 1015.78 1017.54 1018.09 1018.08 1017.14 1016.19 1015.85 1014.92 1013.49 1012.18 1010.88 1009.68 1008.38 1007.24 1006.26 1006.91
1011.88 1011.38 1010.95 1010.49 1010.04 1009.50 1009.04 1008.61 1008.09 1007.79 1007.61 1007.47 1007.53 1007.80 1008.05 1008.68 1009.97 1010.95 1010.26 1010.30 1010.81 1012.29 1015.02 1017.23 1018.22 1016.16 1014.13 1013.12 1011.96 1010.80 1009.89 1009.12 1008.63 1009.19 1010.50 1012.37 1015.50 1017.31 1019.12 1019.48 1019.82 1020.02 1019.84 1019.38 1017.75 1015.82 1015.17 1013.93 1012.47 1011.13 1009.85 1009.50 1009.32 1008.99
1012.76 1012.16 1011.56 1011.09 1010.59 1010.01 1009.53 1009.13 1008.61 1008.05 1007.81 1007.85 1008.41 1009.11 1010.51 1011.23 1010.78 1010.64 1011.17 1011.99 1013.49 1016.67 1018.29 1020.37 1020.81 1018.74 1016.62 1014.98 1013.65 1012.59 1010.80 1009.86 1009.37 1010.29 1011.61 1014.53 1017.68 1019.10 1020.24 1021.05 1021.41 1021.26 1021.05 1020.28 1018.67 1017.28 1016.22 1015.18 1014.32 1013.34 1012.67 1012.36 1011.96 1011.14
1013.64 1013.05 1012.20 1011.56 1011.04 1010.70 1010.37 1009.83 1009.00 1008.40 1008.35 1009.09 1010.71 1011.43 1011.58 1011.18 1011.36 1013.10 1015.47 1017.13 1019.66 1021.51 1022.76 1023.05 1022.22 1020.60 1018.00 1017.26 1015.59 1014.00 1012.72 1011.34 1010.94 1011.47 1012.36 1015.72 1018.60 1020.29 1021.33 1021.73 1022.00 1021.98 1021.63 1020.87 1020.44 1019.88 1018.81 1018.12 1017.15 1015.91 1014.57 1013.57 1012.56 1011.54
1014.12 1013.72 1013.12 1012.30 1011.55 1010.98 1010.57 1010.21 1009.56 1009.32 1010.54 1010.84 1011.51 1012.55 1012.90 1014.22 1015.42 1017.04 1021.11 1022.48 1023.51 1025.40 1025.13 1024.83 1023.37 1022.01 1020.22 1018.41 1017.11 1015.14 1014.35 1013.02 1012.62 1012.88 1013.93 1017.30 1019.97 1021.55 1022.35 1022.75 1022.87 1022.73 1022.23 1021.52 1020.81 1020.10 1019.36 1018.71 1018.46 1017.50 1016.17 1015.17 1014.37 1013.78
1014.51 1014.20 1013.82 1013.11 1012.34 1011.58 1011.06 1010.71 1010.49 1010.70 1011.17 1011.82 1012.68 1015.32 1017.12 1019.19 1020.96 1022.76 1025.21 1026.10 1026.69 1026.95 1026.88 1026.33 1024.72 1023.46 1021.40 1019.70 1018.32 1017.35 1016.18 1014.90 1014.18 1015.07 1017.33 1019.64 1021.40 1022.73 1023.56 1023.64 1023.10 1022.78 1022.58 1022.19 1021.65 1021.02 1020.28 1019.88 1019.76 1018.65 1017.51 1016.64 1016.09 1015.55
1014.77 1014.37 1014.17 1013.61 1012.96 1012.42 1011.87 1011.58 1011.36 1011.58 1012.07 1015.68 1017.86 1020.78 1023.62 1024.90 1026.51 1027.55 1028.04 1028.48 1027.82 1027.37 1027.58 1027.13 1026.15 1024.86 1022.69 1020.81 1019.56 1018.78 1017.60 1016.97 1017.19 1018.26 1019.79 1021.30 1022.70 1023.76 1024.33 1024.42 1023.98 1023.53 1023.23 1022.88 1022.33 1021.91 1021.70 1021.37 1020.63 1019.96 1019.10 1018.22 1017.86 1017.47
1014.61 1014.37 1014.27 1013.62 1013.13 1012.95 1012.63 1012.66 1012.42 1013.32 1016.35 1020.22 1021.89 1026.16 1027.88 1028.62 1028.88 1029.35 1030.03 1029.80 1028.84 1028.21 1027.75 1027.30 1026.31 1024.97 1023.19 1022.08 1021.00 1020.23 1019.70 1019.88 1020.44 1021.10 1021.98 1023.20 1024.08 1024.76 1025.08 1025.22 1025.02 1024.66 1024.37 1024.12 1023.89 1023.48 1022.86 1022.25 1021.58 1020.85 1019.98 1019.22 1018.75 1018.50
1014.62 1014.73 1014.71 1013.87 1013.43 1013.43 1013.15 1013.52 1014.20 1016.53 1021.10 1023.76 1026.53 1029.02 1030.26 1030.55 1030.85 1031.02 1031.09 1030.59 1029.24 1028.75 1028.25 1027.63 1026.45 1025.22 1024.65 1023.89 1022.90 1022.88 1022.54 1022.30 1022.45 1022.98 1023.84 1024.72 1025.35 1025.81 1026.05 1026.04 1025.83 1025.51 1025.10 1024.78 1024.53 1024.39 1023.83 1023.09 1022.29 1021.52 1020.76 1020.25 1019.75 1019.34
1015.25 1016.02 1015.30 1014.25 1013.81 1013.88 1013.87 1015.06 1017.65 1021.53 1024.61 1027.46 1030.31 1031.18 1031.09 1031.50 1031.76 1031.69 1031.45 1030.61 1029.52 1029.14 1028.96 1028.17 1027.18 1026.01 1025.22 1025.13 1024.91 1024.57 1024.21 1024.16 1024.39 1024.81 1025.45 1025.97 1026.46 1026.79 1026.97 1026.99 1026.73 1026.37 1025.89 1025.48 1025.33 1024.97 1024.26 1023.51 1022.75 1022.17 1021.64 1021.23 1020.82 1020.24
1016.48 1016.52 1015.35 1014.73 1014.47 1014.73 1016.80 1018.46 1021.53 1024.40 1028.26 1030.18 1030.94 1031.54 1031.86 1031.59 1031.88 1032.10 1031.61 1031.05 1030.45 1029.67 1029.29 1028.40 1027.38 1026.86 1026.34 1026.05 1026.01 1025.86 1025.74 1025.93 1026.27 1026.39 1026.59 1027.11 1027.43 1027.49 1027.59 1027.55 1027.03 1026.65 1026.35 1026.02 1025.71 1025.19 1024.69 1024.39 1023.82 1023.25 1022.74 1022.09 1021.55 1020.99
1016.66 1016.15 1015.52 1015.21 1015.20 1016.82 1019.95 1022.32 1023.52 1027.07 1029.84 1030.85 1031.09 1031.24 1031.65 1031.90 1031.90 1031.91 1032.00 1031.46 1030.88 1030.10 1029.37 1028.69 1028.09 1027.68 1026.98 1026.84 1027.01 1027.44 1027.39 1027.82 1027.77 1027.69 1027.76 1027.59 1027.62 1027.78 1027.86 1027.76 1027.59 1027.22 1026.73 1026.35 1025.96 1025.60 1025.14 1024.72 1024.48 1023.83 1023.39 1023.01 1022.78 1022.28
1016.51 1016.24 1015.89 1015.98 1015.49 1018.39 1022.65 1025.03 1025.15 1027.19 1029.97 1030.59 1030.99 1031.37 1031.74 1031.79 1032.00 1032.32 1032.39 1031.97 1031.09 1030.43 1030.07 1029.34 1028.33 1027.51 1027.39 1027.54 1027.83 1028.19 1028.48 1028.87 1028.98 1028.96 1028.59 1028.05 1027.96 1028.21 1028.30 1028.31 1028.00 1027.45 1026.80 1026.13 1025.83 1025.31 1025.13 1024.53 1024.28 1024.01 1023.71 1023.49 1023.12 1022.52
1017.11 1017.01 1016.50 1016.83 1019.08 1021.31 1025.11 1027.52 1028.24 1029.30 1030.21 1030.67 1031.38 1031.64 1031.70 1031.64 1032.08 1032.25 1032.26 1031.86 1031.42 1030.35 1029.80 1028.73 1028.30 1027.67 1027.93 1028.25 1028.66 1029.01 1029.35 1029.55 1029.58 1029.42 1029.24 1029.31 1028.87 1028.97 1028.67 1028.33 1028.14 1027.90 1027.59 1027.11 1026.71 1025.71 1025.21 1024.99 1024.44 1024.04 1023.87 1023.50 1023.02 1022.66
1018.64 1017.74 1018.05 1018.62 1021.32 1023.75 1026.42 1028.66 1029.21 1029.68 1030.17 1031.13 1031.66 1031.97 1032.33 1032.57 1032.80 1032.58 1032.41 1031.50 1030.25 1028.55 1028.17 1028.47 1028.64 1028.62 1029.17 1029.36 1029.30 1029.61 1029.74 1029.98 1029.89 1029.79 1029.70 1029.60 1029.35 1029.27 1028.81 1028.80 1028.77 1028.19 1027.57 1027.05 1026.49 1025.96 1025.10 1024.58 1024.24 1024.08 1023.91 1023.52 1023.25 1022.89
1018.79 1018.92 1019.96 1021.33 1023.29 1025.29 1028.67 1028.97 1029.55 1030.25 1030.89 1031.51 1031.87 1032.34 1032.90 1033.14 1032.53 1032.13 1031.54 1029.81 1028.50 1027.85 1028.13 1028.63 1028.86 1029.17 1029.54 1029.87 1029.98 1029.79 1029.62 1029.81 1029.67 1029.38 1029.17 1029.06 1028.95 1028.99 1028.92 1028.58 1028.51 1028.23 1027.41 1026.29 1025.69 1025.64 1025.43 1024.77 1024.58 1024.39 1024.03 1023.61 1023.35 1022.87
1020.28 1022.59 1024.09 1025.21 1026.18 1028.04 1029.06 1029.75 1030.40 1030.82 1031.44 1032.17 1032.39 1032.90 1033.01 1033.23 1032.18 1031.38 1030.42 1028.76 1027.31 1028.14 1028.79 1029.09 1029.32 1029.94 1030.06 1030.23 1030.60 1029.54 1029.29 1029.58 1029.68 1029.40 1029.00 1028.99 1028.93 1028.11 1027.54 1027.23 1026.89 1026.62 1026.61 1026.15 1025.94 1025.73 1025.37 1025.10 1024.84 1024.59 1024.31 1024.16 1023.59 1023.21
1022.59 1027.35 1028.09 1028.69 1028.91 1029.17 1029.91 1030.27 1030.72 1030.88 1031.78 1032.06 1032.10 1032.09 1032.64 1033.31 1032.19 1030.89 1029.25 1027.32 1027.45 1027.89 1028.62 1029.40 1029.52 1029.74 1030.02 1029.64 1029.25 1028.73 1028.65 1028.89 1029.27 1029.53 1028.15 1028.14 1028.54 1028.25 1027.47 1026.81 1026.30 1025.76 1025.63 1026.27 1026.38 1025.97 1025.30 1024.75 1024.39 1024.14 1023.82 1023.59 1023.21 1022.56
1025.54 1030.00 1031.19 1031.23 1031.15 1030.91 1031.28 1031.78 1031.80 1031.97 1031.78 1031.57 1031.26 1031.50 1031.78 1031.49 1030.68 1029.01 1027.20 1026.11 1026.42 1026.47 1026.86 1027.42 1027.75 1028.72 1029.07 1028.48 1028.58 1028.13 1027.74 1027.84 1028.23 1028.29 1027.37 1027.26 1027.54 1027.79 1027.42 1027.46 1026.83 1025.64 1025.50 1025.72 1026.03 1025.95 1025.33 1024.70 1024.33 1023.95 1023.47 1022.91 1022.50 1022.26
1028.14 1030.92 1032.34 1033.23 1032.29 1031.78 1031.92 1032.42 1032.62 1032.34 1031.85 1031.42 1030.88 1030.69 1030.29 1029.43 1028.03 1025.76 1024.80 1025.12 1025.57 1025.66 1025.78 1025.63 1025.73 1026.12 1026.50 1026.74 1026.93 1026.69 1026.99 1026.90 1026.39 1026.16 1026.09 1026.20 1026.21 1026.18 1026.38 1026.55 1026.10 1025.61 1025.41 1025.35 1025.47 1025.34 1024.96 1024.26 1023.69 1023.20 1022.76 1022.19 1021.79 1021.41
1030.13 1031.36 1032.13 1032.72 1032.21 1032.08 1032.08 1032.27 1032.10 1031.65 1031.26 1031.11 1031.13 1030.33 1028.87 1026.86 1025.59 1024.77 1024.90 1025.22 1025.55 1025.45 1025.36 1025.26 1025.36 1025.49 1025.63 1025.66 1025.78 1026.12 1026.36 1026.31 1026.14 1025.71 1025.37 1025.20 1024.99 1025.23 1025.49 1025.55 1025.30 1024.95 1024.81 1024.60 1024.38 1024.01 1023.73 1023.29 1022.73 1022.16 1021.71 1021.23 1020.69 1020.32
1031.41 1032.01 1032.09 1032.23 1032.04 1032.13 1031.75 1031.75 1031.70 1031.37 1031.49 1031.60 1031.66 1029.89 1028.00 1025.95 1025.14 1025.18 1025.30 1025.58 1025.50 1025.45 1025.13 1024.99 1024.79 1025.02 1024.95 1025.05 1025.43 1025.63 1026.03 1026.42 1026.41 1025.92 1025.61 1025.44 1025.65 1025.46 1025.18 1025.05 1024.77 1024.50 1024.22 1023.89 1023.52 1023.11 1022.62 1022.09 1021.44 1021.29 1021.07 1020.80 1020.31 1019.85
1032.09 1032.31 1032.10 1031.91 1031.89 1031.31 1031.24 1031.70 1032.27 1032.52 1032.79 1032.87 1032.74 1031.25 1029.57 1027.13 1025.59 1025.73 1025.66 1025.55 1025.33 1024.87 1024.35 1024.39 1024.42 1024.82 1024.83 1024.92 1025.02 1025.22 1025.47 1025.54 1025.61 1025.52 1025.51 1025.30 1025.29 1025.04 1024.66 1024.56 1024.35 1023.92 1023.63 1023.43 1023.13 1022.59 1022.13 1021.78 1021.48 1021.21 1021.08 1020.70 1020.37 1019.82
1032.39 1032.61 1032.34 1031.95 1031.53 1031.50 1032.20 1032.80 1033.27 1033.63 1033.83 1033.78 1033.83 1033.38 1031.76 1029.78 1027.39 1025.69 1025.42 1025.11 1024.85 1024.53 1024.14 1023.91 1023.94 1024.22 1024.35 1024.52 1024.72 1024.99 1025.30 1025.21 1025.07 1024.86 1024.69 1024.60 1024.47 1024.46 1024.36 1024.12 1023.86 1023.65 1023.47 1023.29 1023.11 1022.94 1022.46 1022.05 1021.71 1021.39 1021.08 1020.77 1020.33 1019.88
1032.77 1032.80 1032.76 1032.47 1031.72 1032.27 1032.90 1033.26 1033.45 1033.65 1033.81 1033.86 1033.64 1033.45 1032.41 1031.52 1029.44 1025.68 1024.63 1024.79 1024.53 1024.06 1023.78 1023.85 1023.70 1023.90 1024.02 1024.20 1024.38 1024.46 1024.54 1024.68 1024.69 1024.45 1024.23 1023.99 1023.81 1023.71 1023.78 1023.79 1023.82 1023.68 1023.46 1023.35 1023.21 1023.10 1022.63 1022.26 1021.91 1021.56 1021.23 1020.75 1020.20 1019.66
1033.15 1033.13 1033.06 1032.91 1032.41 1032.45 1032.87 1033.19 1033.25 1033.05 1032.98 1033.04 1032.76 1032.49 1032.05 1031.37 1029.24 1025.82 1024.19 1024.16 1024.19 1023.96 1023.74 1023.63 1023.65 1023.73 1023.81 1023.95 1024.13 1024.21 1024.46 1024.53 1024.36 1023.67 1023.47 1023.04 1023.00 1022.87 1023.44 1023.79 1023.89 1023.53 1023.38 1023.30 1023.13 1022.93 1022.51 1022.14 1021.78 1021.36 1020.95 1020.51 1019.96 1019.34
Wind_Speed
31 37 23 19 21 23 23 23 21 20 20 20 17 15 16 14 14 9 1 5 5 5 3 2 3 5 3 2 4 3 4 2 3 6 6 7 7 10 8 7 8 13 11 8 14 16 23 13 19 26 35 2 5 20
39 37 38 21 24 25 24 23 23 23 22 19 17 15 14 14 12 8 4 4 4 7 4 2 1 2 2 3 5 2 3 3 6 4 4 3 4 3 6 11 4 9 11 9 13 13 3 20 7 6 6 4 3 5
39 39 39 37 31 20 24 23 22 19 17 16 15 15 15 13 13 9 4 2 5 4 3 1 2 4 4 3 2 4 3 4 3 2 3 3 8 2 8 8 4 6 3 5 5 8 6 15 4 7 8 6 4 1
38 35 36 35 35 33 30 28 24 21 18 15 14 15 16 13 15 10 5 3 4 3 5 4 2 3 6 8 6 5 4 3 2 2 3 4 6 3 4 3 2 6 5 3 4 4 3 6 12 14 15 10 8 6
35 34 32 32 31 31 29 26 24 22 22 18 16 17 19 22 23 13 6 4 3 4 5 3 1 4 4 8 10 9 10 8 4 4 5 6 4 4 4 2 5 9 10 6 3 9 8 6 14 17 15 13 12 7
34 34 34 32 30 28 25 23 21 20 20 16 17 19 15 10 6 5 6 4 4 3 5 2 2 2 1 5 8 11 7 6 4 4 4 5 2 4 2 3 9 14 15 15 9 19 16 16 11 15 14 15 13 9
33 33 32 31 30 28 27 24 19 15 15 17 14 7 7 8 4 5 5 4 8 1 4 4 5 4 5 3 3 2 2 3 3 2 3 3 5 7 4 4 18 17 18 20 15 20 2 12 11 15 14 15 8 6
30 30 29 29 28 27 26 24 20 14 11 9 13 17 18 19 12 6 5 10 2 6 6 4 5 5 7 4 4 1 2 2 1 2 3 3 5 5 5 11 13 16 18 10 23 19 12 13 12 15 13 15 14 13
27 28 28 27 27 26 25 25 22 12 7 5 7 7 4 7 5 3 8 7 5 6 5 5 3 5 7 3 3 4 2 3 1 2 2 5 3 6 6 12 12 12 11 15 21 8 14 14 15 16 17 17 14 13
25 26 26 26 26 27 26 25 23 14 6 7 6 6 5 3 10 5 9 7 9 7 7 4 2 4 4 4 4 4 2 3 2 2 4 5 2 3 7 6 6 10 11 12 9 15 18 16 17 16 15 11 9 9
21 23 26 26 24 24 24 24 24 11 8 5 3 1 3 10 4 6 4 6 5 6 5 2 2 3 5 2 3 2 4 3 2 2 2 3 1 4 9 7 8 9 10 10 7 7 9 9 11 12 12 13 13 13
20 19 24 24 24 24 24 23 23 7 2 4 4 2 4 8 5 9 1 4 7 1 5 1 3 2 5 3 1 4 2 3 3 5 3 2 2 5 8 9 8 8 10 10 10 11 11 11 11 10 9 12 12 12
21 14 21 22 22 23 23 20 16 7 4 4 7 8 6 6 11 6 2 5 4 3 4 6 5 2 5 2 2 2 4 3 2 5 2 2 3 5 6 6 7 8 9 9 10 11 11 11 10 10 11 12 11 11
21 12 17 21 21 20 18 17 13 6 8 8 7 9 6 6 2 4 4 4 4 1 3 2 3 1 3 4 1 3 4 3 4 4 3 3 6 7 7 7 7 10 11 11 12 11 10 9 8 8 9 9 9 10
23 9 14 20 23 18 14 12 13 7 7 6 7 4 3 2 1 2 2 2 3 2 2 3 2 2 3 3 2 2 7 4 1 1 2 2 5 5 6 7 8 8 8 8 9 9 10 10 9 8 8 8 9 8
20 5 9 26 21 16 11 8 8 5 7 6 9 5 2 4 4 3 1 3 2 3 1 1 0 4 3 1 6 1 3 1 3 2 1 2 3 4 4 5 6 6 6 7 7 7 7 8 8 8 6 8 8 8
10 3 22 23 18 7 19 7 6 10 7 7 3 1 2 1 4 3 2 3 2 2 1 2 4 5 1 4 3 3 3 2 2 2 1 2 2 4 4 5 4 5 5 5 5 5 6 7 7 6 9 9 8 6
1 6 20 20 8 6 6 7 7 7 7 0 3 3 2 2 2 3 4 2 2 2 2 2 1 3 4 3 4 3 2 2 2 3 2 2 3 3 3 4 5 5 5 6 5 5 5 6 5 5 6 7 7 6
4 5 19 18 7 6 6 7 5 6 2 1 2 0 2 2 3 1 1 2 2 1 2 3 4 2 3 3 4 3 3 3 3 2 3 3 3 3 4 3 4 3 4 5 4 4 4 5 4 3 3 3 3 4
9 10 18 14 9 6 7 4 2 6 2 2 1 2 2 3 1 1 1 3 1 2 2 1 5 4 5 4 4 3 3 3 2 3 4 3 1 1 4 3 4 4 6 5 4 4 3 3 1 1 2 2 4 6
7 8 12 7 6 9 7 2 5 2 2 2 2 1 2 3 3 3 2 1 2 4 2 5 4 4 2 2 2 2 2 4 4 4 4 3 2 2 4 3 2 2 2 3 4 6 3 3 4 3 2 4 3 3
3 10 4 6 6 5 7 1 3 1 2 1 2 1 2 2 3 3 3 2 4 4 4 4 4 2 2 4 3 5 3 3 2 1 2 2 4 3 3 3 3 4 4 4 3 5 5 4 4 4 4 5 4 5
6 5 5 6 7 7 3 2 4 6 3 4 3 4 3 3 3 2 2 3 5 2 1 2 1 1 1 4 4 4 2 2 3 3 3 4 4 4 4 4 3 3 5 4 1 2 4 5 6 5 5 5 4 5
9 9 7 5 4 0 2 4 2 3 3 5 3 4 4 3 6 4 4 4 4 1 1 2 2 2 2 3 3 4 4 4 1 4 3 1 4 5 2 4 3 4 5 5 4 3 3 3 3 3 2 3 4 4
7 9 6 6 3 5 6 5 5 4 1 1 1 3 3 3 3 2 4 5 3 2 1 1 2 1 3 3 3 4 4 5 4 4 3 5 1 4 4 3 4 6 2 1 4 3 5 4 5 5 6 6 8 10
7 5 4 3 3 4 1 3 3 2 1 3 3 1 2 3 2 7 5 4 4 4 5 6 6 3 3 6 3 2 3 5 4 2 4 5 5 4 3 2 4 6 1 2 0 4 7 6 6 7 8 9 8 8
3 1 1 1 1 3 2 1 1 0 2 2 2 1 2 1 5 6 3 1 1 2 2 2 4 4 4 3 3 3 3 6 6 4 2 3 4 4 4 4 4 5 3 3 3 4 6 8 8 8 8 8 7 7
3 2 1 1 2 1 2 1 3 5 4 2 2 3 4 7 5 3 2 1 2 3 2 2 2 3 3 3 3 2 3 2 4 5 4 4 3 2 3 3 4 11 6 4 5 6 5 7 8 10 10 10 10 6
2 1 1 1 1 2 5 5 4 2 1 3 4 5 5 2 2 2 2 1 2 3 4 3 2 1 2 2 3 3 3 3 2 2 2 3 4 3 3 4 4 4 4 4 7 8 9 9 10 10 11 10 10 9
1 1 1 1 3 4 2 1 2 1 0 0 2 5 4 5 4 1 2 3 3 5 3 2 2 1 2 1 3 3 0 3 3 4 3 3 4 3 3 4 5 5 3 3 5 7 9 6 7 4 5 6 7 8
2 1 1 1 4 1 0 1 1 1 1 1 0 2 4 7 7 3 3 2 2 3 2 2 2 2 3 2 2 1 2 1 4 6 4 3 3 4 5 5 4 3 3 3 4 5 6 7 6 7 8 9 10 10
1 1 1 3 4 1 1 2 2 1 1 1 2 1 4 3 5 4 2 1 2 2 1 2 1 1 2 2 2 2 3 1 3 4 5 3 4 5 4 3 2 2 3 3 3 3 4 5 6 7 8 10 10 11
2 0 1 2 4 4 2 3 3 5 1 2 3 3 3 3 6 5 2 3 2 2 2 2 1 1 2 3 3 2 2 3 3 4 4 4 4 4 2 2 2 2 3 3 4 3 5 6 7 8 8 8 10 11
Wind_Direction
50 35 50 75 97 101 97 98 101 106 117 124 112 98 96 95 78 77 80 1 104 99 98 72 152 137 104 130 185 219 48 249 201 227 235 219 231 215 223 213 191 188 187 197 212 218 249 154 154 168 212 223 199 201
47 45 37 75 89 90 91 95 93 96 101 108 109 102 92 87 82 81 70 338 26 77 139 114 111 65 71 141 132 190 225 169 216 262 235 265 255 213 201 252 187 225 196 180 192 218 324 180 209 8 344 177 160 181
49 44 43 47 56 83 72 78 86 90 95 101 104 99 87 75 67 92 103 357 59 97 64 116 199 173 152 162 176 136 277 238 238 36 317 275 265 170 203 226 218 227 49 202 136 229 199 213 350 28 358 349 333 292
48 48 46 44 45 51 57 63 69 75 82 90 102 98 86 80 76 78 81 333 67 109 108 281 95 181 183 175 180 210 256 262 294 274 241 248 261 232 271 295 287 350 357 252 273 27 308 51 29 356 329 323 340 329
42 42 45 48 41 40 45 49 56 65 70 78 89 97 96 92 89 80 72 28 47 112 172 240 328 231 168 185 212 216 231 238 217 212 205 237 245 227 217 147 51 13 353 325 346 11 316 299 342 353 336 356 337 336
37 37 39 40 41 40 35 37 45 56 63 82 97 99 95 93 73 54 38 353 11 28 96 54 275 42 238 239 248 238 217 231 221 209 225 229 250 300 216 93 39 4 337 321 320 320 294 290 289 2 340 336 337 356
33 31 32 32 33 33 31 27 27 37 54 65 75 100 66 69 74 83 156 274 334 54 75 10 343 347 350 306 293 260 192 244 224 264 230 289 15 8 32 51 346 348 335 313 346 335 346 10 333 337 343 340 353 15
29 29 28 26 24 25 24 22 21 19 29 61 90 92 94 95 102 37 358 8 42 87 58 78 287 15 4 315 312 347 274 252 172 302 341 36 19 20 62 342 342 344 341 338 338 328 332 328 350 358 4 4 29 16
22 23 23 20 20 19 17 12 9 12 29 54 106 76 61 35 46 256 342 50 44 83 105 74 115 267 349 302 288 323 286 275 65 58 43 72 358 45 332 336 345 351 356 315 318 347 350 359 358 6 14 16 20 12
18 16 16 17 16 11 8 5 1 355 13 94 44 50 3 290 311 27 6 26 20 354 24 88 356 285 338 348 305 329 312 297 332 86 92 65 71 120 17 355 338 346 337 337 346 357 350 354 353 357 9 6 9 8
16 14 10 9 8 10 5 1 354 352 67 42 52 138 253 331 55 34 48 60 330 35 9 281 191 305 323 19 279 334 305 290 296 20 41 75 60 7 355 356 355 350 344 348 347 333 345 341 338 345 358 1 1 12
10 12 9 4 1 1 360 4 2 36 134 158 139 70 24 32 32 77 5 333 43 184 328 337 303 307 294 300 351 322 277 350 290 322 56 53 52 7 346 345 346 352 348 348 354 351 353 358 351 347 360 3 6 5
3 2 9 4 1 358 356 2 12 48 70 33 50 50 21 322 43 69 353 332 23 333 350 344 321 343 320 285 305 11 18 260 308 38 65 52 4 353 333 330 339 356 357 358 360 359 358 356 351 4 7 7 5 16
354 355 6 360 4 2 359 5 14 42 63 63 54 29 55 352 28 183 184 198 258 355 321 262 267 312 285 353 340 38 247 33 41 39 346 359 357 336 337 345 348 355 357 353 353 350 353 353 350 358 13 13 11 19
350 354 9 356 0 4 9 28 43 42 65 66 53 68 59 243 302 242 255 349 258 261 325 360 314 258 315 10 38 353 17 24 37 314 318 341 334 330 334 341 345 351 353 351 346 345 344 347 348 350 8 12 19 19
350 42 355 349 356 11 20 36 33 71 55 66 45 76 335 58 308 339 318 264 244 323 350 75 345 40 353 129 45 167 107 244 262 224 260 326 313 323 326 328 329 331 333 331 334 327 327 344 344 332 353 16 13 16
33 31 336 347 355 32 29 69 53 45 90 55 13 8 126 113 183 234 169 250 331 77 79 109 56 215 318 41 9 195 190 249 275 284 264 244 273 298 304 304 314 321 322 326 316 316 318 326 324 353 6 356 353 5
75 286 345 354 13 42 31 37 76 71 64 248 98 253 222 205 178 279 246 280 40 110 112 171 77 60 149 149 280 248 251 267 237 257 264 239 237 272 270 291 312 317 319 315 314 308 310 332 341 349 335 341 335 354
292 338 357 7 48 83 64 20 48 94 208 234 270 246 174 238 262 348 315 313 254 302 88 47 76 188 232 213 206 255 256 223 246 272 262 278 284 291 300 283 277 284 306 308 308 309 300 279 263 285 301 324 325 312
347 6 4 26 40 72 60 7 43 88 120 232 68 337 223 203 199 102 348 356 67 97 40 140 210 216 187 218 190 187 202 176 124 344 315 307 278 303 288 294 299 310 314 308 296 288 307 319 272 311 320 311 324 323
7 338 6 50 46 60 82 353 46 114 150 118 277 48 270 11 24 17 324 344 59 204 236 214 231 254 198 212 194 159 180 167 196 185 208 283 273 254 296 300 300 300 275 307 309 313 335 275 284 308 311 306 289 280
290 354 47 21 72 42 77 349 120 230 76 208 21 18 26 355 318 308 277 35 228 236 193 180 221 196 328 285 252 196 186 164 174 246 286 337 301 325 298 250 341 300 281 264 249 275 299 301 307 310 312 309 309 305
4 16 43 30 73 46 289 38 66 357 69 299 11 13 333 334 237 315 278 223 259 245 197 177 228 347 242 327 333 299 213 155 276 259 246 228 228 232 248 239 198 239 294 288 210 282 293 309 313 311 314 318 320 318
29 46 39 40 37 162 6 21 42 46 43 30 39 314 324 289 327 37 256 258 247 325 198 208 138 74 3 2 295 264 242 158 235 300 234 17 320 297 233 271 279 246 228 283 306 301 276 283 286 296 279 287 292 280
64 349 39 358 352 25 23 357 349 37 337 343 355 304 306 357 20 321 240 271 290 259 217 113 107 166 170 251 273 259 211 166 170 216 261 188 194 316 302 250 249 251 158 91 306 302 307 319 314 308 305 302 298 305
70 335 59 201 291 47 338 332 356 327 339 315 248 305 21 72 39 249 235 233 235 204 189 187 174 157 260 207 217 265 237 167 134 164 261 180 187 181 244 292 321 318 164 168 145 299 299 303 295 298 298 293 275 275
97 276 3 296 131 139 118 88 126 53 305 242 262 348 40 316 256 255 284 262 287 299 280 233 169 171 186 210 247 251 186 183 199 195 164 191 209 203 187 210 252 242 199 211 222 226 274 292 292 288 283 283 265 257
103 158 132 179 127 107 163 219 196 214 235 178 97 238 209 208 246 258 243 4 304 300 286 262 213 186 187 210 206 180 254 277 303 293 288 267 238 203 197 241 258 277 285 270 266 268 252 260 270 276 281 284 292 285
76 202 175 96 147 199 219 204 230 228 141 147 190 250 252 278 323 292 299 320 322 335 319 319 277 295 266 247 222 209 178 153 125 19 4 287 337 316 228 233 251 256 249 258 283 304 299 298 309 319 314 306 301 301
220 166 109 153 173 242 236 159 243 45 8 347 296 298 272 262 254 186 266 277 275 265 263 262 288 324 296 325 325 339 113 186 195 152 180 246 239 265 310 315 304 295 295 303 301 305 311 319 302 312 313 305 307 311
119 115 345 221 256 262 355 343 3 319 346 278 250 232 271 310 309 254 227 255 287 269 243 248 235 194 182 175 182 83 11 262 229 247 249 257 277 285 282 276 273 279 296 298 303 303 307 312 308 308 308 307 306 306
77 137 138 292 289 302 349 15 319 295 257 304 266 247 301 323 282 278 190 154 302 11 354 293 8 56 214 227 238 252 256 249 224 230 241 238 254 261 270 281 317 355 336 314 302 290 298 300 301 306 306 305 305 307
69 59 215 305 312 322 320 23 351 319 336 292 265 205 226 195 249 284 301 187 221 283 309 311 293 270 261 247 234 253 255 241 271 309 316 314 330 323 36 353 340 337 321 298 295 285 300 301 305 303 302 299 301 301